Location: ?????????
(53.2086°N, 54.0693°E)
Time: 13:41:42
(UTC+00:00)

METEOR-M - Pass Details

Date: 08 December 2019
Orbit: 817 x 818 km, 98.4° (Epoch: 18 January)

Event Time Altitude Azimuth Distance (km) Brightness Sun altitude
Rises 12:46:08 0° 168° (SSE) 3,334 7.6 -5.7°
Reaches altitude 10° 12:48:29 10° 170° (S) 2,406 6.9 -6.0°
Maximum altitude 12:53:48 75° 256° (WSW) 851 4.4 -6.7°
Drops below altitude 10° 12:59:11 10° 342° (NNW) 2,424 6.5 -7.4°
Sets 13:01:33 0° 344° (NNW) 3,361 7.2 -7.7°
